Theta_e
333 332 333 333 332 332 333 334 334 334 335 335 336 336 335 335 336 336 337 338 339 339 339 338 337 337 337 337 336 335 334 333 333 333 332 332 332 332 333 333 334 333 333 334 333 333 333 332 332 332 332 333 332 331 331 329 327 328 329 329 328 327 328 329 329 330 330 329 329 328 328 327 328 328 327 327 327 327 328 329 329 329 329 330 330
332 332 332 332 332 332 333 334 335 334 335 335 335 335 334 335 335 335 336 337 339 339 338 338 337 336 335 334 333 333 333 332 332 332 332 333 333 333 333 333 333 333 334 334 333 332 333 333 332 331 332 332 332 332 332 330 328 329 329 328 328 328 328 329 329 329 329 329 328 327 327 327 327 327 326 326 326 327 327 328 328 328 328 328 328
333 333 332 331 332 332 334 334 334 334 334 335 335 334 334 334 335 336 337 338 338 337 336 336 335 333 332 331 331 332 332 332 332 332 333 333 333 333 333 333 333 333 333 333 332 331 332 333 331 331 332 332 332 333 332 330 329 329 329 328 327 328 328 329 329 329 328 329 328 328 329 329 328 327 326 327 326 326 327 326 326 326 326 326 327
334 334 332 332 332 333 334 333 333 334 334 334 334 334 334 334 336 336 337 337 335 334 334 333 332 331 331 331 331 332 332 332 332 332 333 333 333 333 332 332 332 332 332 332 332 332 332 332 332 332 331 331 332 332 332 330 329 329 329 328 327 328 329 329 329 329 328 328 328 329 327 327 331 328 325 325 325 326 326 326 325 325 326 326 326
334 334 333 333 333 333 333 333 333 333 333 334 334 334 334 334 336 336 336 334 330 330 332 331 331 332 331 332 332 332 332 331 332 331 332 332 331 331 331 332 331 331 331 332 332 332 332 332 332 332 331 331 331 332 332 330 329 329 329 329 328 328 329 329 330 329 329 328 328 328 326 328 331 327 324 322 321 324 326 325 325 325 326 326 326
333 333 332 333 333 332 332 332 333 333 333 334 334 334 333 333 334 335 334 332 328 328 330 330 331 332 331 330 330 330 331 330 330 330 330 330 330 330 330 330 331 330 330 331 331 331 331 331 331 331 331 331 330 331 331 329 328 328 328 328 328 328 328 329 329 329 329 328 327 328 328 329 328 326 326 323 319 320 323 325 325 325 326 326 325
333 331 331 332 332 332 332 331 332 333 334 334 333 333 333 333 333 332 330 329 329 329 330 331 331 330 328 328 329 328 330 329 328 329 329 329 329 329 328 326 326 329 330 329 330 330 330 330 331 331 331 330 329 330 330 329 329 329 328 328 328 328 328 328 329 329 329 328 328 328 327 327 326 324 324 323 321 320 321 324 326 324 325 325 325
333 331 331 332 332 332 331 331 331 332 333 333 332 333 332 332 331 329 329 330 331 330 330 331 330 328 327 327 327 328 329 329 329 329 329 328 328 328 327 325 324 326 326 326 327 328 328 328 330 330 330 330 329 329 329 329 330 329 329 328 328 328 327 327 328 328 329 328 328 329 328 326 325 323 320 320 321 320 319 321 323 323 324 324 324
334 331 331 331 331 332 332 331 331 331 333 332 332 332 332 332 332 330 330 330 330 330 330 330 327 327 327 327 327 328 329 329 329 328 328 327 326 326 327 326 326 325 324 324 325 326 326 327 327 327 328 329 329 329 328 329 330 329 329 328 328 328 327 326 327 328 328 328 328 329 328 326 324 321 319 318 318 319 319 318 317 319 322 324 324
334 331 330 331 331 332 331 331 330 331 332 332 332 332 332 332 332 331 330 329 329 329 329 327 325 326 326 326 327 327 328 329 328 327 326 326 326 326 326 326 327 326 325 324 324 325 326 326 326 325 326 327 328 328 328 329 329 328 329 329 328 328 327 326 327 328 328 328 328 328 327 324 322 320 319 318 317 317 319 317 315 315 317 321 323
334 331 330 330 330 331 331 331 330 330 331 331 331 331 332 331 330 329 328 328 328 328 328 326 325 326 325 324 325 325 327 328 326 324 324 325 326 325 325 326 326 326 326 324 324 325 325 325 325 325 325 325 327 327 328 328 328 328 328 328 327 327 327 326 327 328 327 327 328 328 326 324 322 320 319 318 317 315 317 317 314 314 316 320 323
333 332 331 330 330 331 330 330 330 330 331 331 331 331 331 330 329 329 328 328 328 328 327 326 326 327 326 324 325 324 326 326 324 322 322 324 326 325 324 325 325 325 325 325 325 325 325 324 325 325 325 325 326 327 328 327 327 328 328 327 327 326 327 327 327 327 327 327 328 327 327 325 323 321 319 319 317 316 316 316 314 315 316 318 320
333 332 331 331 331 331 330 330 330 331 331 331 331 330 330 330 329 329 328 328 328 328 328 327 327 328 327 325 326 325 325 324 323 322 323 324 325 324 324 324 324 325 325 324 324 325 324 324 324 325 325 326 326 327 328 328 328 328 327 327 327 326 326 326 326 327 327 327 328 327 327 326 324 322 321 320 317 315 315 314 314 315 315 314 317
333 332 331 331 331 330 330 331 331 331 331 331 331 330 330 330 330 330 329 329 329 329 330 329 328 328 327 326 326 325 325 323 323 322 323 323 322 322 323 324 324 324 323 323 323 325 324 324 324 324 325 325 326 328 328 329 328 328 327 328 328 327 326 326 326 326 326 326 328 328 327 326 324 323 322 319 314 313 314 314 314 314 313 312 312
332 331 332 332 331 331 331 331 331 331 332 331 331 330 331 331 331 331 330 331 331 331 331 330 329 327 326 326 325 325 324 323 322 322 321 322 321 322 323 324 323 323 322 322 323 325 324 324 324 323 324 325 325 327 328 329 328 328 328 329 329 328 327 327 326 325 325 326 326 326 326 325 324 323 322 317 311 311 313 314 314 313 312 309 307
331 331 332 332 332 332 332 332 332 332 332 332 331 331 331 332 332 331 331 331 331 330 329 329 329 327 326 325 324 324 322 320 320 320 321 322 322 323 323 323 323 322 322 323 324 324 323 323 323 323 323 324 324 326 328 329 329 328 329 329 329 328 326 325 323 322 323 323 321 320 319 320 321 322 323 319 312 311 313 314 314 313 311 309 307
331 332 333 333 333 332 332 332 332 332 332 332 332 331 332 332 332 331 331 331 331 330 328 328 327 326 324 323 323 322 320 320 320 320 322 323 323 322 322 323 323 322 322 324 324 323 323 322 323 323 324 324 324 326 328 329 329 329 329 328 328 326 322 319 317 317 317 317 316 315 315 316 316 317 320 321 315 312 314 314 314 312 309 308 310
331 332 332 332 332 333 333 332 332 333 333 332 333 332 332 332 332 331 331 331 331 329 327 327 326 324 323 322 322 321 320 321 321 321 322 322 322 322 322 323 323 322 323 324 323 323 323 322 322 323 323 323 324 325 326 327 327 326 325 323 321 318 315 314 314 314 314 314 314 314 315 316 316 316 319 321 318 314 313 313 312 311 309 308 308
332 333 332 332 332 332 332 332 332 333 333 333 334 334 332 332 333 332 332 331 331 329 327 326 325 324 323 322 321 321 321 322 322 321 321 321 321 322 323 323 322 323 323 323 323 322 322 322 322 322 323 322 322 322 323 324 323 322 320 317 315 314 313 313 314 313 313 313 314 314 315 315 316 316 318 320 319 315 313 312 311 309 309 308 307
332 332 332 331 330 330 331 332 332 332 333 332 331 331 333 334 334 334 333 331 331 329 327 326 325 324 324 322 322 322 322 322 321 321 321 321 321 322 323 322 322 323 322 322 322 321 322 322 321 321 321 321 321 319 319 320 320 319 318 316 314 313 314 314 314 313 313 313 313 314 316 315 315 316 316 317 317 315 314 313 311 309 309 308 307
330 330 330 330 329 329 329 330 331 331 331 327 324 327 332 334 335 335 334 333 332 330 328 326 325 325 324 324 323 322 321 321 320 320 321 322 322 322 322 322 322 321 320 320 320 321 321 321 320 319 319 319 319 318 317 317 318 317 316 316 315 314 315 315 314 314 313 313 313 314 315 316 315 316 316 316 315 315 316 315 313 311 309 308 308
328 328 328 328 327 328 328 329 329 330 329 325 324 328 332 333 333 333 332 332 332 330 329 328 326 325 325 325 324 322 321 320 320 321 322 322 322 322 322 321 320 319 318 318 318 318 320 320 318 317 317 317 318 317 316 316 315 314 313 314 316 316 316 316 315 315 315 314 314 315 316 315 315 315 315 315 315 315 315 315 314 312 310 309 309
326 326 326 326 326 327 328 328 328 329 328 327 328 330 332 331 329 326 326 327 327 327 328 328 327 327 327 326 324 321 321 321 321 321 322 322 322 321 321 320 319 319 318 317 316 315 318 319 317 315 314 315 315 315 315 315 314 313 312 314 317 317 316 315 315 315 316 316 315 315 315 315 315 315 314 314 314 315 315 315 314 312 310 310 311
324 325 325 325 325 326 327 327 327 327 326 326 327 328 329 329 327 324 324 324 325 327 328 327 326 325 324 323 322 321 321 321 321 321 322 322 321 320 319 318 318 318 317 315 314 314 315 316 315 314 313 313 313 313 313 313 313 312 312 314 316 316 316 315 315 315 315 315 315 315 314 314 314 314 314 314 314 314 314 315 314 313 313 313 314
324 324 324 324 324 325 325 325 326 325 324 324 324 325 326 327 327 325 324 324 326 327 327 326 326 325 323 322 321 322 321 321 321 322 321 321 321 320 318 316 316 316 315 314 313 312 312 313 313 313 312 312 311 311 311 312 312 312 312 314 316 316 316 315 315 316 315 314 314 314 314 314 314 314 315 315 315 314 314 315 315 314 314 315 314
317 319 321 321 321 322 323 324 325 324 323 323 323 324 324 325 326 325 324 325 326 327 327 327 327 326 324 322 321 321 321 321 321 320 320 321 320 319 317 315 314 315 314 313 312 312 311 312 312 312 312 312 311 311 311 311 312 312 313 315 316 316 316 316 315 315 314 314 314 314 314 314 314 314 314 315 315 315 315 314 314 314 314 315 315
307 309 311 311 312 313 315 318 322 323 323 322 322 323 323 324 324 325 325 326 327 327 327 327 326 326 324 322 320 320 320 319 319 318 319 320 320 318 317 315 314 314 314 314 313 313 312 312 312 312 312 312 312 312 312 311 313 313 313 314 315 316 316 315 314 314 314 314 314 313 313 314 315 314 315 315 315 315 315 315 315 315 315 315 315
303 303 304 304 305 306 307 309 314 318 321 322 322 322 322 322 323 324 325 326 326 326 326 326 326 325 323 321 320 320 319 318 317 316 316 317 316 315 315 315 314 313 314 314 314 314 313 312 311 311 312 312 313 313 312 312 314 314 314 314 315 315 315 314 314 314 313 313 313 312 312 313 315 315 315 316 316 316 316 316 315 315 315 315 314
302 302 302 302 302 303 304 304 306 309 313 316 319 321 321 321 322 323 324 324 324 324 324 324 325 324 323 322 321 320 319 319 319 319 319 319 318 316 316 316 316 315 315 315 315 314 314 313 311 311 312 312 313 313 313 313 314 315 314 314 315 315 315 314 314 314 314 313 314 314 314 314 315 316 316 317 317 316 316 316 316 315 315 315 314
302 301 301 301 301 302 302 303 303 304 305 308 312 317 320 321 321 321 322 322 322 323 323 323 323 323 323 323 322 322 321 321 321 322 323 323 321 321 321 320 320 318 316 316 315 314 314 314 313 312 312 312 313 314 313 312 314 315 314 314 314 314 314 314 314 314 314 314 315 316 316 316 317 317 317 317 317 317 317 316 316 316 316 316 315
301 301 301 301 301 302 302 302 302 302 303 304 306 311 316 319 319 318 319 319 320 321 322 322 322 322 322 322 322 322 322 322 322 323 324 323 323 322 322 322 322 320 317 316 315 315 314 314 314 314 313 312 313 314 314 313 313 314 314 314 314 313 314 315 314 314 314 315 316 317 317 317 317 318 317 318 318 318 317 317 317 317 317 317 317
301 301 300 300 301 302 302 302 302 302 302 303 304 306 308 310 310 310 310 312 314 315 316 316 316 318 320 321 322 322 323 323 323 322 323 323 323 323 323 323 323 322 320 317 315 316 316 315 315 314 314 313 313 314 314 314 314 314 314 315 314 314 315 317 316 315 315 316 317 317 318 318 318 318 318 318 318 318 318 317 317 317 317 317 317
301 301 301 301 301 301 301 302 302 302 302 302 303 304 304 304 304 304 305 306 307 307 307 306 307 309 311 314 318 320 321 321 322 322 322 322 322 322 322 321 321 321 322 320 319 319 319 318 317 316 315 315 314 314 314 314 314 315 315 315 315 315 316 317 317 317 317 317 317 318 318 318 319 318 318 318 318 318 317 317 316 316 317 317 316
301 302 302 301 301 301 301 301 301 302 302 302 302 303 303 303 303 303 304 304 304 304 303 303 304 304 305 307 310 312 313 314 316 317 318 319 319 320 321 320 319 320 321 321 322 322 322 322 321 320 319 318 317 317 316 314 314 315 316 316 316 316 316 316 317 317 317 318 318 318 318 318 319 319 318 318 317 316 315 315 315 315 316 316 315
302 302 302 302 301 301 301 301 301 302 302 302 303 302 303 302 302 303 303 303 303 303 303 303 303 303 304 304 305 305 306 307 308 309 310 311 312 314 316 316 316 318 319 320 321 322 322 321 321 322 322 322 321 320 319 317 316 315 316 316 316 316 317 317 317 316 317 318 318 318 319 319 319 319 318 317 316 315 314 314 314 315 315 315 314
302 302 302 301 301 301 301 301 301 302 302 303 303 303 303 303 302 302 302 302 302 302 302 302 302 303 303 303 303 303 303 304 304 305 305 306 306 307 307 308 309 311 314 316 319 321 321 321 321 321 321 321 321 321 321 321 320 318 317 316 316 316 317 317 317 317 317 318 319 319 320 320 320 320 319 317 315 314 314 314 315 316 315 314 314
301 301 300 300 300 301 301 301 301 302 302 303 303 304 304 304 303 303 302 301 300 301 301 301 301 301 301 302 302 303 302 302 302 303 303 303 303 303 303 304 304 305 306 308 310 313 316 320 322 323 322 321 321 320 321 321 321 321 320 318 316 316 317 317 318 318 318 319 319 320 320 320 320 320 319 316 315 315 314 314 315 316 315 313 312
300 301 301 301 300 301 301 301 302 302 302 303 303 303 304 303 302 303 302 301 300 301 301 300 300 300 300 300 301 301 301 301 301 301 301 301 301 302 302 302 302 303 303 303 304 306 308 311 315 318 320 321 320 320 320 320 321 321 321 320 318 316 317 319 320 320 320 320 320 320 320 320 319 319 317 316 315 315 314 315 316 316 314 312 311
301 302 302 302 301 301 301 301 301 302 302 302 302 302 302 301 301 301 301 300 301 301 301 301 300 300 300 300 300 300 300 300 300 301 300 300 300 300 300 301 301 301 302 302 302 303 304 304 306 307 310 312 313 314 316 318 320 321 321 320 319 318 318 319 320 320 321 320 320 319 318 318 318 317 316 315 315 315 315 315 316 315 313 311 310
302 302 302 301 301 301 301 301 301 301 301 301 301 301 301 301 300 301 301 301 301 301 300 300 300 300 300 300 300 300 300 300 300 300 300 300 300 300 300 300 300 300 301 301 301 302 302 302 303 303 304 304 305 307 308 311 314 317 320 320 320 319 318 318 318 319 320 320 319 318 317 318 318 317 317 317 317 317 316 315 315 315 312 310 309
301 301 301 301 301 301 301 301 301 301 301 301 301 301 301 301 300 301 301 301 300 300 300 300 300 300 300 300 300 300 300 300 300 300 300 300 300 300 300 300 300 300 300 300 300 300 301 301 302 302 302 302 303 304 305 305 307 310 315 318 320 319 319 319 318 318 318 318 318 317 317 318 317 316 317 317 318 317 316 316 316 315 312 309 308
299 300 301 301 301 301 301 301 301 301 301 301 301 301 301 300 300 300 300 300 300 300 300 300 299 299 299 299 299 299 299 299 299 299 299 299 299 299 299 299 300 300 300 300 300 300 300 300 301 301 301 301 302 303 304 304 305 306 309 313 317 319 319 319 318 317 317 317 317 316 316 316 316 315 315 316 316 316 316 315 314 313 312 310 308
299 300 300 300 301 301 301 301 301 300 301 301 300 300 300 300 299 299 300 299 300 299 299 299 299 299 299 299 299 299 299 298 298 298 299 299 299 299 299 299 299 299 299 299 299 299 299 299 300 300 301 301 301 301 302 303 304 306 306 308 312 315 318 319 318 318 318 318 318 317 317 316 315 315 314 314 315 315 315 314 313 313 312 310 307
299 299 300 300 301 301 301 301 301 301 301 301 300 300 299 299 299 299 299 299 299 299 299 299 299 298 298 298 298 298 298 298 298 298 298 298 298 298 298 298 298 298 298 298 298 298 298 298 298 298 299 300 300 300 301 301 303 305 307 307 308 311 315 317 318 318 318 318 318 317 317 316 316 315 314 313 313 313 313 313 313 312 311 308 306
299 299 300 300 300 301 301 301 301 300 300 300 299 299 299 299 299 299 299 299 299 299 298 298 298 298 298 298 297 297 297 297 297 297 297 297 297 297 297 297 297 298 298 297 297 297 297 297 297 297 297 298 298 299 300 300 301 304 307 309 310 311 313 315 316 316 317 317 317 317 317 316 315 313 312 311 310 310 311 311 311 310 309 307 305
299 299 299 300 300 301 301 300 300 300 299 299 299 299 299 299 299 299 299 298 298 298 298 297 297 297 297 297 297 297 297 297 296 296 296 296 296 296 296 296 296 297 297 297 297 297 296 296 296 296 296 297 297 298 299 299 300 303 306 309 311 312 313 314 314 314 314 315 315 316 315 314 312 311 310 309 309 309 309 309 309 310 309 307 305
299 298 298 299 300 300 300 299 299 299 299 299 299 299 299 299 298 298 298 298 298 298 297 297 297 297 297 297 297 296 296 296 295 295 295 295 295 295 295 295 295 296 296 296 296 296 296 296 296 296 296 297 297 297 298 299 300 302 303 305 307 310 312 313 313 313 312 313 313 312 310 309 309 308 308 308 308 308 308 308 308 309 308 307 304
298 298 298 299 299 299 299 299 299 299 299 299 299 299 299 299 299 298 298 298 297 297 297 296 296 296 296 297 296 296 296 295 295 295 295 295 295 295 295 295 295 296 296 296 296 295 295 295 295 295 296 296 296 297 298 299 300 301 302 303 303 305 308 310 310 310 311 311 311 310 306 304 303 304 305 306 306 306 306 306 305 305 305 304 302
298 298 298 298 299 299 299 299 299 299 299 298 298 299 299 299 299 298 298 297 297 297 297 296 296 295 295 295 295 295 295 295 296 296 296 296 295 296 295 295 295 295 295 295 295 295 295 295 295 295 295 295 296 297 298 299 300 302 303 304 303 302 303 307 308 308 309 309 308 307 304 302 301 301 300 301 302 302 301 301 301 301 301 301 300
297 298 298 298 299 299 299 299 299 299 298 298 298 299 299 299 298 298 297 297 297 297 297 297 296 295 295 295 295 295 296 296 296 296 296 296 296 296 295 295 295 295 295 295 295 295 294 294 294 294 295 295 295 296 297 298 300 302 303 303 303 302 302 305 307 307 307 306 305 304 302 301 300 300 297 295 296 297 297 298 299 299 299 299 299
297 298 298 299 299 299 299 299 298 298 298 297 298 299 299 298 298 297 297 297 297 297 297 297 296 296 295 295 296 296 296 296 296 296 296 295 295 295 295 295 295 295 295 295 295 294 294 294 294 294 295 295 296 296 297 298 300 301 302 303 303 302 303 305 307 306 305 303 302 301 300 299 299 298 296 295 294 295 297 298 297 297 297 297 297
Wind_Speed
14 18 22 25 29 31 31 30 31 33 34 33 31 30 32 32 31 32 33 32 29 27 26 26 26 23 21 20 20 19 17 15 13 12 11 10 9 8 7 6 6 7 6 7 7 7 7 7 8 10 11 12 11 9 8 9 11 11 12 13 14 16 15 14 16 20 19 17 15 12 10 8 7 6 6 7 6 7 9 9 9 9 8 8 6
12 14 18 24 27 29 30 32 35 35 33 33 32 31 32 32 31 31 31 31 30 27 26 25 24 23 22 22 21 20 18 15 15 15 13 11 9 9 8 7 7 7 6 7 6 6 6 7 8 8 10 13 12 11 8 9 11 11 13 14 15 16 16 15 17 15 14 14 14 11 8 6 5 4 6 7 7 8 9 9 9 9 8 8 7
11 11 15 21 27 31 30 30 36 39 36 34 32 32 31 30 30 30 30 30 28 25 24 23 23 23 22 21 21 20 17 16 16 15 14 12 10 8 8 8 8 7 7 7 6 6 6 6 7 8 10 14 14 12 10 9 11 12 14 15 16 17 16 17 15 11 12 16 14 7 3 3 3 2 4 6 6 8 10 10 10 9 9 9 9
13 13 15 18 24 27 26 27 32 35 36 33 32 33 32 31 32 31 30 29 27 25 25 24 23 22 20 20 19 18 18 17 16 15 14 13 11 10 9 9 8 7 6 6 5 5 5 5 7 8 10 12 13 13 11 11 13 14 15 15 17 17 17 16 13 11 17 16 9 4 3 3 2 1 2 5 3 6 9 10 10 10 10 10 9
15 16 16 16 20 23 23 26 30 32 33 34 35 35 33 33 34 33 31 30 30 29 28 26 24 22 20 19 19 19 20 19 17 15 14 14 13 12 11 9 8 7 6 5 4 4 4 4 6 8 9 11 13 13 11 11 14 15 15 15 16 17 17 17 13 13 18 13 7 6 4 2 2 4 4 6 5 6 8 10 11 10 10 9 8
14 14 14 15 19 22 22 25 28 29 31 34 36 35 35 36 35 34 33 32 33 32 29 27 25 23 24 25 25 23 22 20 18 17 16 16 15 14 13 10 9 8 7 6 5 5 5 5 6 7 8 9 12 12 10 11 13 14 14 15 15 15 16 18 15 15 16 10 8 7 2 4 9 9 5 3 7 8 9 12 11 11 10 8 8
12 12 12 13 17 19 20 25 29 29 31 32 33 33 35 37 35 33 34 34 33 31 30 28 26 26 28 31 29 26 23 20 18 17 16 16 16 15 14 12 10 9 9 8 8 7 6 5 7 7 7 8 10 10 10 11 12 11 12 14 14 14 15 18 18 17 15 10 8 6 3 9 17 13 6 4 4 7 10 14 12 11 11 10 11
12 12 11 11 15 19 21 25 29 31 32 31 31 32 34 35 33 33 33 32 31 30 30 30 30 30 31 30 28 26 24 22 19 18 16 15 15 15 14 13 12 11 11 11 10 9 7 6 6 6 6 8 9 10 9 10 10 10 11 11 12 13 13 15 19 19 16 12 9 6 5 11 16 15 14 13 7 4 7 11 11 11 11 12 15
12 12 12 13 17 22 25 27 29 32 33 32 32 33 33 33 33 33 31 29 30 31 30 31 31 31 31 29 28 25 23 22 21 18 16 15 14 14 13 12 12 12 11 10 10 8 7 6 6 5 5 7 8 9 10 9 10 10 10 9 9 11 12 13 16 18 18 15 11 8 9 12 13 15 17 16 11 7 5 5 10 12 11 14 17
10 10 12 15 20 23 25 27 30 32 33 32 32 32 33 32 32 32 29 28 30 32 31 30 29 30 30 29 28 26 25 24 22 19 17 15 14 14 13 13 12 12 11 10 9 7 7 7 6 4 4 7 7 8 10 10 9 9 9 8 7 9 11 11 13 16 17 15 13 12 14 16 14 13 14 14 12 8 6 6 11 13 12 13 16
9 9 9 11 15 18 20 23 26 29 30 29 29 31 32 32 31 30 27 26 29 31 31 28 26 28 29 29 28 28 28 27 24 21 19 17 17 16 15 14 13 13 13 11 10 10 10 9 7 4 4 8 9 9 10 11 10 9 9 8 7 8 9 10 12 14 14 14 14 14 17 19 17 15 16 17 12 9 8 6 9 15 16 16 16
9 8 7 8 11 13 16 18 19 24 26 26 27 29 31 31 30 28 25 25 28 29 28 26 26 28 29 29 29 30 30 29 26 23 22 21 20 19 17 16 15 15 15 13 12 12 10 9 9 7 6 8 10 9 10 12 11 11 11 10 9 8 9 11 12 14 13 14 16 16 17 20 19 20 21 18 15 18 16 9 9 14 14 14 18
8 7 7 7 8 10 13 16 17 20 23 25 27 29 30 29 28 28 26 27 28 27 24 24 26 29 30 30 30 31 31 29 26 25 25 24 23 21 18 17 16 16 15 12 12 12 10 10 10 10 9 9 9 9 10 11 11 11 12 12 11 10 11 11 12 13 12 13 16 16 16 17 16 19 20 15 16 24 22 13 10 11 11 13 16
6 6 7 7 8 10 14 16 17 19 21 24 26 28 29 28 28 28 27 27 27 25 23 24 27 30 31 31 30 31 30 28 26 25 26 24 22 21 19 17 16 14 13 11 11 12 11 11 11 10 11 10 10 10 10 10 11 11 12 11 11 11 11 10 10 10 10 12 15 15 15 14 12 16 18 16 19 26 25 19 12 8 11 14 12
4 5 6 7 9 13 15 17 18 20 21 22 23 24 26 27 27 28 26 25 24 24 24 26 28 30 30 29 29 29 28 26 25 24 24 22 20 19 18 16 14 11 11 11 11 12 11 11 11 10 10 10 10 10 11 12 12 12 12 11 11 11 11 11 10 10 11 12 13 12 12 12 11 14 16 17 22 26 26 27 21 10 6 7 7
4 5 6 8 11 14 16 17 19 21 20 20 20 21 22 24 25 26 25 24 23 24 26 28 29 29 28 28 27 27 25 24 23 22 21 20 18 18 17 15 13 11 11 11 11 11 11 10 10 10 10 10 10 11 12 13 13 13 14 13 12 12 12 11 11 11 12 12 11 10 10 12 13 15 17 18 22 24 26 28 28 21 10 4 4
5 5 7 8 11 14 16 18 19 19 19 19 20 21 23 24 25 25 24 23 23 24 25 27 29 28 27 27 27 26 24 23 22 21 20 19 18 18 17 16 15 13 12 13 12 12 10 11 12 12 12 11 11 13 14 14 15 14 15 15 14 13 12 12 13 14 15 16 16 15 13 13 15 18 20 21 22 23 25 25 27 28 22 10 4
5 6 7 7 10 13 16 18 19 20 20 20 20 21 24 26 27 27 26 25 24 24 24 26 28 28 28 28 27 25 23 23 22 21 20 20 19 19 18 18 17 15 15 14 13 12 11 12 12 11 13 14 13 15 15 16 17 16 16 17 17 16 15 16 16 17 19 19 19 18 17 15 14 18 23 25 25 23 24 25 25 28 28 20 11
4 5 6 6 9 13 16 18 18 19 20 19 17 20 24 26 27 27 27 27 27 26 26 26 28 28 28 28 27 24 23 23 23 22 21 20 20 20 21 20 18 16 16 14 13 13 12 13 11 11 14 15 14 14 15 16 17 18 18 19 18 17 17 17 17 17 18 18 18 17 18 19 19 18 21 24 25 23 23 25 25 24 26 24 20
4 4 5 6 8 13 16 18 17 17 17 15 12 15 20 23 25 26 27 27 27 28 27 27 28 29 27 26 25 24 23 24 24 22 21 20 21 22 22 20 18 16 15 14 14 14 14 14 13 14 16 16 15 14 14 16 17 17 18 19 18 17 17 17 16 15 15 15 17 17 18 20 22 23 22 22 20 18 19 23 26 24 23 22 22
4 4 5 6 8 11 15 16 16 15 14 13 11 12 18 22 24 26 29 28 27 26 27 27 27 26 26 25 24 23 23 23 23 21 20 20 21 22 21 19 16 14 14 15 15 16 16 14 13 14 16 16 15 14 14 16 17 17 17 18 18 17 18 17 15 14 14 15 16 16 17 19 21 21 21 20 18 16 14 16 22 25 23 21 21
5 5 5 5 7 9 11 13 14 14 14 16 16 17 21 23 22 25 28 24 20 19 20 24 27 26 25 23 22 23 24 23 22 20 20 21 21 20 19 17 15 15 15 16 15 15 16 15 14 14 15 15 15 14 14 16 17 17 18 19 19 19 19 17 16 15 16 16 17 17 17 17 18 17 16 15 14 13 12 13 16 22 24 23 19
6 6 5 6 8 9 10 12 13 14 14 15 17 17 20 21 18 19 19 13 11 12 13 15 18 22 23 23 24 25 24 22 21 20 20 20 19 18 16 15 16 17 16 15 14 15 16 15 15 15 15 14 14 14 14 15 17 18 19 20 20 20 19 19 19 18 16 16 18 18 16 15 15 14 12 12 12 12 12 12 14 18 22 21 16
7 7 6 8 10 10 10 10 11 12 12 12 12 11 14 16 14 17 20 15 12 15 16 12 11 14 17 19 23 25 24 22 21 20 20 19 18 17 15 14 17 18 17 15 14 14 15 15 15 15 14 13 14 14 14 16 17 17 19 21 21 21 21 21 22 20 17 17 18 18 16 14 14 14 12 11 12 13 14 14 15 16 16 15 13
8 8 8 9 10 10 10 10 11 13 13 14 13 7 5 8 12 18 23 21 19 20 20 16 15 15 15 14 15 18 20 21 21 20 20 19 17 16 14 16 18 19 18 16 15 15 15 15 16 16 14 14 14 14 15 16 16 16 18 22 23 22 22 22 21 20 19 19 19 18 17 15 15 15 13 12 14 15 15 15 15 14 13 12 11
10 10 9 10 9 10 11 12 13 15 16 16 14 7 3 6 10 16 20 20 21 22 21 20 20 20 19 18 17 16 16 17 18 19 20 20 19 17 16 18 20 20 18 17 16 16 16 16 16 15 14 15 15 14 15 16 16 17 18 21 21 21 20 20 20 20 20 20 19 19 18 16 16 17 16 14 14 15 16 15 15 14 13 12 11
11 11 11 11 10 10 12 13 13 16 17 17 16 13 11 12 13 15 17 18 19 22 23 22 22 21 21 22 22 20 19 18 17 16 16 17 18 18 17 17 18 20 19 17 16 16 16 17 17 15 15 15 14 14 16 16 16 17 19 20 20 20 20 21 19 19 19 18 18 18 18 18 18 17 17 16 15 15 15 14 15 15 15 14 12
12 12 12 12 11 11 14 16 15 15 17 17 16 15 15 16 18 17 17 17 17 19 21 23 24 24 23 24 25 24 24 22 18 14 13 15 15 16 16 15 16 19 18 16 16 15 14 17 19 17 16 17 15 15 17 17 15 16 20 22 20 20 21 20 19 18 18 17 16 17 18 18 18 17 16 16 16 16 15 15 15 15 15 14 12
13 12 12 11 11 11 13 17 19 20 20 19 17 14 13 16 18 17 14 13 16 19 20 20 22 23 24 25 25 25 24 21 18 16 14 14 12 12 14 13 13 16 15 14 16 15 14 17 20 19 19 19 18 18 19 19 17 18 22 24 22 21 21 20 20 20 18 17 17 17 17 18 18 17 16 15 14 14 15 15 15 15 15 14 13
12 11 11 11 11 13 16 19 21 22 22 21 18 14 14 14 15 15 13 14 17 19 19 19 19 19 19 18 17 18 18 17 18 18 17 16 13 11 11 11 11 13 14 14 16 16 15 16 19 20 21 22 21 20 20 21 21 20 22 24 24 23 22 20 21 22 21 20 19 18 18 18 18 18 17 16 15 14 13 13 13 14 14 15 14
11 10 10 10 11 13 16 18 20 22 23 22 20 19 19 19 20 21 21 20 20 20 19 19 18 17 16 15 14 13 12 13 16 18 17 16 15 12 9 6 7 11 14 16 16 16 15 16 17 19 22 24 24 22 21 22 23 22 22 23 24 25 22 20 22 24 24 23 21 21 21 20 19 19 18 17 16 15 14 12 12 12 13 14 14
10 10 9 10 11 12 14 17 21 25 25 23 22 24 25 25 25 26 27 28 28 26 25 24 22 20 17 14 12 10 10 10 11 13 13 13 13 13 10 6 3 5 11 16 17 16 15 15 16 18 19 22 24 24 22 23 23 24 24 23 24 25 23 22 23 25 25 25 24 22 23 23 22 21 20 19 18 17 16 15 14 14 14 14 14
9 9 8 9 11 13 16 20 24 25 25 23 23 26 26 25 26 27 30 32 32 31 31 29 28 27 25 21 18 14 12 10 8 7 7 6 6 7 8 6 2 1 4 9 11 12 11 12 14 16 16 18 20 22 24 25 25 25 25 24 25 26 26 25 25 25 25 25 25 24 24 24 23 22 21 20 19 19 17 17 17 18 18 18 18
9 8 8 10 13 17 19 22 23 24 24 24 24 25 25 26 27 28 30 31 31 31 31 30 29 29 28 27 25 23 20 17 15 12 10 8 8 5 3 3 3 5 5 5 5 6 6 7 8 10 12 13 14 16 20 24 27 28 28 27 27 28 29 29 29 28 28 27 27 27 27 25 24 23 21 20 20 19 17 17 18 19 19 20 20
7 7 8 12 17 19 20 21 22 22 24 25 25 26 27 29 29 29 29 29 29 30 29 28 27 26 25 25 24 23 22 20 18 17 16 15 15 13 10 6 1 3 6 8 8 7 8 9 9 10 12 13 14 14 14 17 21 26 29 31 31 31 31 32 32 32 31 30 29 29 29 28 26 25 23 22 21 19 17 17 18 19 19 19 19
6 8 9 13 16 17 16 17 18 19 21 23 23 24 26 28 29 30 30 28 28 29 27 26 25 24 22 21 21 21 20 19 17 16 17 17 16 14 13 10 8 6 3 3 4 5 8 11 13 13 14 15 16 16 16 16 16 19 23 28 32 33 33 33 34 34 34 33 32 31 31 30 28 27 26 25 23 21 19 18 19 20 20 19 18
9 10 11 14 16 15 14 15 16 17 18 18 19 20 22 24 26 27 28 28 28 28 26 25 24 23 21 19 18 18 18 18 17 16 17 16 15 14 13 12 11 10 9 9 8 6 6 7 10 11 13 14 14 14 16 17 17 18 19 21 25 30 33 33 34 34 34 34 34 33 33 31 30 30 29 27 24 22 20 20 21 21 20 19 17
11 11 11 12 14 14 14 16 18 18 18 18 20 21 22 23 24 23 23 25 27 26 25 24 24 22 21 20 18 17 18 18 17 17 17 16 15 14 14 13 13 12 12 11 11 9 8 7 7 9 12 14 15 15 16 17 18 19 19 20 21 25 30 31 31 32 32 32 33 33 32 31 30 31 28 24 22 22 22 22 22 22 21 19 17
9 10 9 10 11 13 15 17 20 20 18 18 20 22 24 24 23 23 22 22 23 22 22 22 22 22 21 21 20 19 19 19 19 18 17 17 16 15 14 14 13 13 13 12 12 11 10 9 9 9 10 12 15 16 17 18 20 20 21 21 21 24 27 27 28 29 30 31 31 30 29 29 29 28 26 24 23 24 24 24 23 23 24 22 19
7 7 8 9 11 14 16 18 19 17 16 16 17 21 23 22 21 21 21 20 18 18 18 18 19 20 20 20 20 19 18 18 18 18 17 17 17 16 16 15 15 15 15 14 13 13 13 12 12 12 12 13 15 16 17 18 19 21 23 24 24 25 26 27 28 29 30 31 29 25 25 28 28 25 25 24 24 25 25 25 25 26 25 21 17
11 9 10 12 14 15 16 17 16 15 16 16 17 20 20 19 19 19 18 16 15 15 16 16 17 18 17 17 18 17 17 17 17 16 16 16 16 16 16 16 16 16 16 16 16 16 16 15 14 13 13 13 14 15 16 16 17 20 23 26 28 28 28 28 30 31 31 32 30 26 26 28 28 26 25 25 25 25 26 27 29 28 22 15 15
15 13 12 13 14 14 15 15 14 14 15 17 18 18 17 17 19 20 17 15 15 15 15 16 17 17 17 17 17 16 16 16 16 16 16 15 15 15 15 15 16 16 16 16 17 17 18 17 16 15 14 13 13 13 15 16 17 18 21 25 30 31 30 30 31 32 33 34 35 34 32 31 31 31 29 28 26 27 28 28 27 23 17 14 18
16 14 11 10 11 12 12 12 12 12 14 15 17 18 18 20 21 20 17 16 16 16 16 16 17 18 18 17 17 17 17 16 16 16 16 15 15 15 15 15 16 17 17 18 18 18 19 20 20 19 18 18 17 17 16 17 17 18 19 22 27 31 32 33 32 32 34 35 36 38 36 34 33 31 29 28 27 27 30 29 25 21 17 18 21
14 13 10 9 9 9 9 9 9 11 12 13 15 17 19 20 20 17 16 17 17 17 17 18 18 18 18 17 16 16 16 16 16 17 17 17 17 17 17 17 17 18 19 19 19 20 21 22 22 22 22 22 22 21 20 19 19 19 19 20 22 26 31 35 35 34 35 35 35 36 35 33 31 29 27 26 27 28 30 29 25 23 22 23 24
11 11 10 8 7 7 7 7 7 9 11 13 14 16 18 18 16 16 17 17 18 18 18 18 18 18 17 16 15 15 15 15 16 17 18 18 19 19 19 18 18 19 19 20 20 21 21 21 21 22 23 23 23 24 23 22 20 18 19 20 21 23 27 32 35 36 35 35 35 34 33 31 29 27 25 25 25 26 26 26 25 24 25 26 26
10 9 10 8 6 6 7 9 10 11 13 15 15 15 15 14 14 15 16 17 18 19 18 18 18 17 15 14 14 15 16 16 17 18 18 19 19 19 20 20 19 19 20 20 20 20 21 22 22 22 23 24 24 24 24 23 21 19 19 21 22 23 24 27 30 32 32 32 32 31 30 29 28 27 27 26 25 23 22 23 25 27 27 26 27
10 9 9 8 5 6 9 13 14 13 13 14 14 14 13 12 13 15 16 18 19 19 19 19 18 15 14 15 16 17 18 19 20 20 20 20 19 19 19 20 19 20 21 21 20 21 22 22 23 24 25 25 24 24 24 23 21 19 20 23 24 24 23 24 25 26 27 28 27 26 26 27 28 30 31 30 28 26 25 25 26 28 28 28 27
8 8 8 8 6 8 11 13 13 12 11 12 13 12 11 12 15 17 19 21 22 21 21 21 19 17 15 16 18 19 20 21 21 21 21 21 20 19 19 18 17 18 19 20 20 21 21 21 23 25 26 26 26 25 23 22 20 20 21 23 24 25 24 22 21 21 24 26 25 24 24 25 24 25 28 30 30 28 27 27 28 28 28 27 25
7 8 8 7 4 10 12 12 11 11 11 11 12 12 11 13 16 18 20 22 22 21 20 20 20 19 18 18 18 19 20 21 22 22 21 21 20 20 20 18 17 16 17 19 20 20 20 21 23 25 25 26 27 26 24 22 20 19 19 21 22 24 24 21 19 19 21 23 22 23 26 26 22 19 19 22 26 27 26 27 28 28 26 25 24
7 7 6 4 6 10 11 10 10 9 10 10 10 10 9 11 14 15 17 18 18 18 17 16 17 19 19 17 17 17 18 20 21 21 21 21 21 20 19 19 19 18 18 17 18 20 22 23 24 24 22 23 25 25 24 23 21 19 18 18 20 23 24 20 16 17 20 21 21 24 26 25 24 21 16 14 17 21 22 23 25 25 25 24 22
8 8 8 7 8 9 9 9 8 9 8 7 7 8 7 8 11 12 13 14 14 15 15 14 13 15 17 16 16 17 18 18 18 19 20 21 22 22 20 19 19 19 19 19 20 23 23 21 19 19 19 18 20 22 23 23 21 20 19 19 20 23 23 19 15 16 19 19 21 24 25 24 23 21 19 17 18 20 20 21 22 22 22 21 20
Wind_Direction
143 140 143 144 143 146 150 150 150 151 161 171 174 176 174 171 171 173 174 174 173 173 177 180 179 180 185 188 189 189 190 191 189 184 177 170 165 165 171 177 194 202 204 200 197 199 196 193 185 176 182 188 191 194 188 183 184 174 162 155 146 145 146 146 144 139 128 112 105 102 99 105 115 117 120 125 130 135 146 157 168 173 172 176 180
138 136 138 141 143 147 151 152 151 153 162 170 172 174 174 173 174 174 174 175 176 176 178 181 183 184 185 185 185 183 183 182 179 179 176 166 158 162 169 172 185 192 193 195 195 194 192 192 189 182 182 186 188 190 189 188 186 175 164 159 151 147 146 150 149 142 134 129 120 106 94 98 105 111 117 120 120 124 133 142 147 146 145 148 156
144 142 143 150 152 153 157 158 155 157 163 169 171 172 172 172 174 174 176 177 178 178 178 180 185 186 182 180 180 179 179 174 169 168 164 156 148 152 162 169 181 183 180 184 185 185 191 194 190 186 182 183 186 188 191 196 190 180 171 164 155 148 148 154 156 154 149 140 126 113 110 91 59 67 107 109 122 131 133 134 130 127 125 126 134
150 151 155 160 159 158 163 160 154 155 161 166 169 171 171 170 172 175 178 177 174 176 179 179 181 181 175 174 175 172 166 160 156 154 152 145 138 139 149 162 172 169 163 165 168 176 188 198 193 185 181 184 192 195 196 198 195 185 176 172 164 153 151 160 165 161 155 146 125 106 126 113 52 284 91 58 91 146 141 136 131 126 122 125 132
152 157 161 162 162 164 166 158 151 154 162 166 169 172 172 171 174 177 177 175 171 174 179 179 177 177 174 169 168 162 154 151 148 147 148 141 134 132 136 147 151 141 138 143 153 167 176 194 192 183 182 186 194 201 202 195 195 193 186 182 177 166 162 166 167 162 160 157 144 132 118 115 190 182 130 56 70 148 167 154 142 137 132 129 127
155 158 160 163 164 163 161 154 151 158 167 168 170 173 173 174 176 177 175 175 173 173 177 176 177 179 171 162 158 154 150 151 150 148 148 139 131 126 121 123 128 129 130 136 146 159 163 174 180 182 185 186 190 198 201 190 190 198 197 194 190 183 177 171 167 167 170 169 160 161 179 181 163 152 138 68 80 112 159 167 154 144 143 135 120
158 156 158 164 164 160 158 155 156 163 169 169 171 173 174 175 176 175 175 176 175 174 174 176 178 176 166 159 157 154 152 154 152 149 147 140 133 127 119 112 116 125 127 128 133 142 150 160 174 189 194 191 192 196 197 191 189 196 199 201 201 197 190 181 173 172 176 178 169 170 167 158 158 154 150 145 101 83 123 148 151 142 138 130 120
158 154 158 163 164 161 159 158 159 164 168 170 173 173 174 175 175 176 178 178 177 175 176 179 178 169 163 161 160 159 156 153 152 150 147 143 136 131 127 120 120 126 125 124 124 127 136 143 160 186 199 199 201 201 198 193 190 192 196 202 206 205 203 195 181 175 179 177 166 165 151 149 157 160 150 138 125 85 106 126 136 137 131 123 122
152 150 157 165 169 167 162 157 158 164 168 172 174 176 176 176 176 179 181 182 179 177 178 179 172 166 163 162 159 158 157 152 151 152 151 149 142 140 141 135 133 133 130 130 129 130 139 141 145 164 192 202 205 203 199 194 190 191 192 195 204 206 208 207 192 183 185 179 166 164 154 142 144 151 145 131 122 127 126 120 130 131 123 124 128
150 154 164 169 171 170 162 155 157 164 169 172 174 176 177 177 178 180 183 184 180 177 176 173 169 166 165 161 157 155 156 155 154 156 157 156 152 151 153 151 152 151 147 145 145 145 144 142 141 144 180 197 197 194 191 190 191 189 189 189 198 202 199 203 199 190 188 183 175 166 152 141 138 144 144 135 124 118 123 138 137 128 119 129 135
153 158 165 162 161 164 159 153 156 161 166 171 173 176 177 178 180 181 184 183 178 174 172 171 171 168 165 161 158 156 158 159 159 160 161 163 164 161 160 161 161 158 156 154 154 150 141 138 144 149 174 186 184 183 185 189 189 181 179 177 180 186 179 179 186 186 186 186 183 176 166 160 156 157 156 148 140 129 126 135 136 127 120 131 142
150 151 153 144 144 155 157 153 154 158 163 169 172 175 178 180 181 181 182 181 176 172 171 173 172 167 165 163 161 160 161 162 163 164 165 166 167 164 163 162 159 155 152 151 152 154 149 143 145 148 152 166 175 180 183 188 187 178 175 171 169 175 170 166 172 178 183 186 187 185 182 178 172 165 162 161 159 150 143 138 139 131 117 129 147
145 146 146 141 144 154 153 150 156 162 165 168 171 175 179 181 181 180 180 179 178 176 175 176 172 168 167 165 164 163 164 165 166 167 167 167 167 166 164 161 158 156 155 155 153 153 154 150 146 143 143 154 170 178 182 186 186 181 177 170 166 169 170 169 175 179 184 187 188 191 188 185 184 176 170 172 163 149 141 137 140 136 120 130 147
138 143 143 144 145 149 151 151 157 167 171 172 173 175 178 180 180 178 176 177 179 181 181 179 174 170 169 168 167 167 169 171 170 168 168 169 170 171 170 165 160 156 156 157 154 149 148 148 146 143 143 151 162 168 174 181 184 180 176 168 163 165 168 175 185 186 185 186 189 194 192 187 186 180 176 171 160 150 144 142 139 125 125 136 146
125 134 133 135 137 144 151 153 158 169 175 176 176 177 177 178 178 175 174 176 179 180 181 180 176 173 173 172 172 174 175 175 173 172 172 173 175 176 176 176 171 161 156 156 155 154 151 148 149 147 145 149 155 162 164 167 171 169 167 165 160 160 165 172 176 170 168 176 183 190 192 191 186 182 181 172 163 158 153 151 149 136 122 133 137
129 126 120 126 133 143 152 154 160 168 173 176 179 180 180 178 176 174 174 176 176 176 176 176 175 176 177 178 178 179 178 176 174 175 176 177 179 181 181 182 180 173 165 159 155 156 156 154 151 148 148 149 156 166 164 161 164 164 166 170 165 161 163 164 162 158 156 156 155 153 160 174 184 186 186 182 174 168 163 161 159 154 149 135 124
124 120 122 129 131 139 148 152 158 163 169 176 181 183 182 178 176 175 176 175 175 175 174 174 176 178 181 181 181 182 180 176 174 174 177 180 184 186 183 179 177 173 168 163 159 155 155 156 151 146 148 148 152 162 164 163 164 164 166 167 165 163 160 154 148 145 145 140 131 123 126 152 177 183 181 183 183 177 172 174 171 163 158 151 134
113 117 121 123 127 134 142 151 160 165 170 176 180 182 180 178 176 175 174 175 176 177 176 177 179 180 181 181 181 182 179 176 177 177 179 184 188 186 180 175 172 170 167 165 165 161 157 160 158 152 153 151 149 154 157 159 159 157 156 154 156 158 154 147 141 137 137 137 130 118 113 126 153 173 180 182 184 182 180 182 180 172 167 165 156
97 106 115 118 124 130 139 151 161 166 172 175 176 178 178 176 175 173 173 175 178 179 179 178 177 177 178 179 181 181 179 179 180 180 182 186 188 183 176 173 170 170 171 172 172 170 166 166 165 160 159 157 156 156 155 156 155 153 152 150 151 154 152 147 144 141 140 140 137 124 115 117 123 139 163 175 182 187 189 190 187 180 177 176 167
82 83 100 106 115 126 139 151 158 164 171 170 165 173 177 174 173 171 173 176 179 180 180 176 174 173 173 175 177 178 177 179 180 180 183 185 183 179 174 172 173 176 180 181 178 175 172 168 164 162 162 162 162 163 162 164 162 158 157 157 156 156 152 147 146 147 147 147 144 130 119 122 122 124 136 151 164 175 187 195 196 192 186 182 175
83 77 87 94 106 120 134 146 150 154 161 159 160 175 180 179 178 175 174 175 177 179 178 176 173 170 169 170 173 174 173 175 178 179 180 180 178 176 174 174 177 180 182 180 177 177 177 173 168 168 168 167 169 170 168 169 166 163 162 160 159 157 151 149 150 152 154 153 150 139 127 128 130 128 131 139 145 148 157 176 192 197 190 183 180
83 77 77 86 96 107 120 130 133 137 145 155 170 181 183 184 181 179 178 172 164 166 168 171 173 172 171 170 169 169 170 173 175 176 177 176 175 174 174 177 179 179 180 179 178 181 183 179 173 173 174 174 178 177 173 172 169 166 164 160 157 156 154 154 156 154 153 152 151 147 140 137 138 133 130 134 140 142 139 143 170 189 185 178 182
80 78 81 95 97 100 111 117 121 126 132 149 166 172 177 183 179 173 175 156 128 140 147 151 161 165 168 170 169 169 169 171 174 176 177 176 174 175 177 179 180 179 179 181 181 181 183 182 178 176 175 177 182 184 182 180 176 172 170 165 161 160 160 162 162 157 155 154 152 148 147 148 149 141 134 136 141 147 148 140 152 173 177 176 187
72 73 73 85 90 90 96 103 110 116 117 125 139 143 158 174 168 154 156 149 139 153 154 138 130 139 150 161 167 170 172 174 177 178 178 176 175 177 178 179 181 179 178 180 180 179 181 183 184 182 180 180 184 187 186 183 182 182 179 174 168 166 165 165 164 162 162 161 158 152 150 154 155 147 141 146 151 153 156 153 155 165 173 178 191
62 65 67 71 75 77 81 86 93 100 103 113 128 137 144 157 150 141 146 154 157 160 160 156 151 151 153 152 155 166 173 178 181 180 180 179 178 181 180 178 179 178 179 182 182 182 181 181 184 186 187 187 188 189 188 187 187 187 183 178 174 171 171 170 170 170 169 169 167 162 158 161 162 155 148 150 156 158 159 160 162 165 168 172 181
51 53 58 62 63 66 73 81 89 98 105 117 132 145 117 111 131 137 141 151 158 160 160 161 162 166 169 166 166 171 178 186 188 183 182 182 182 183 181 177 179 180 182 186 188 188 188 186 186 188 190 192 192 193 194 193 192 191 187 183 181 181 180 180 179 180 178 178 177 174 171 173 172 168 164 163 164 166 169 170 168 165 164 164 168
51 50 50 51 52 49 52 62 80 98 107 115 122 126 127 126 131 139 145 155 163 163 161 162 163 166 169 172 176 179 184 191 192 185 185 188 186 185 184 181 183 183 183 188 194 197 198 195 192 188 190 194 195 196 197 194 196 199 196 192 191 190 187 184 184 186 188 189 189 188 186 185 184 181 177 174 173 170 172 175 174 171 169 167 164
53 52 49 47 46 44 44 48 58 74 85 92 100 109 120 128 131 140 152 162 162 157 154 157 160 161 165 170 175 179 181 183 179 174 186 197 192 187 185 182 181 184 186 190 195 198 200 198 194 190 190 193 194 196 199 198 197 199 197 194 193 191 189 189 192 196 199 199 199 199 198 195 194 193 188 185 184 180 178 177 176 177 178 177 174
57 54 50 46 44 43 43 45 49 56 64 70 76 83 94 109 123 138 152 156 150 147 148 151 155 159 163 166 169 172 175 175 168 163 176 191 190 186 188 187 186 189 192 192 193 196 197 196 197 195 194 197 197 199 203 201 196 193 193 194 194 195 196 199 201 204 206 205 201 199 201 202 203 204 201 198 196 195 195 192 189 190 192 191 191
60 56 52 51 49 46 43 44 45 48 54 62 69 80 92 99 109 118 123 127 132 137 140 140 142 150 158 160 161 164 168 171 169 167 173 181 182 184 191 199 203 202 199 194 192 196 200 200 201 200 199 201 202 202 204 203 199 196 195 198 200 201 203 208 209 207 206 205 203 203 204 206 209 211 212 211 209 209 211 211 210 211 211 209 208
55 50 50 49 47 43 41 41 42 44 49 57 66 79 88 89 90 95 100 107 113 116 118 117 120 129 141 148 150 150 152 157 162 167 172 173 174 175 173 181 203 207 205 201 197 199 205 207 208 208 206 207 208 207 206 205 204 204 202 204 206 206 209 214 213 210 208 206 206 209 210 210 212 214 216 218 219 220 220 221 223 223 224 224 223
51 41 41 44 42 37 34 36 40 44 47 51 62 74 79 82 86 89 93 96 96 94 92 91 92 96 105 116 127 132 133 133 142 155 160 161 168 173 161 139 142 196 205 208 207 207 210 213 214 216 215 214 214 214 212 209 209 210 210 209 210 211 214 215 212 211 211 210 210 210 210 210 211 214 217 220 224 227 227 229 232 232 232 234 233
59 41 31 42 46 40 37 38 40 44 47 51 62 70 73 77 81 84 85 87 87 85 83 80 78 78 80 84 89 90 93 95 98 114 133 145 167 181 173 152 110 357 203 199 202 206 211 214 218 224 229 229 227 224 221 218 215 214 215 216 216 216 218 219 218 219 219 217 216 214 212 211 212 214 218 222 226 228 230 234 240 241 241 241 241
65 52 36 45 52 46 41 39 40 43 49 56 61 65 69 73 75 77 78 78 78 77 76 73 71 71 72 75 78 78 77 78 79 81 83 80 74 76 115 165 224 272 262 236 220 217 221 225 226 232 238 242 243 238 233 228 223 220 220 222 222 222 223 223 224 226 227 226 224 222 219 218 218 218 220 223 226 230 234 241 246 246 245 245 245
67 62 49 51 56 53 47 42 40 41 48 56 60 63 67 68 68 68 68 69 70 70 69 68 66 66 66 68 70 69 67 68 70 73 72 69 68 67 67 70 68 266 262 260 256 250 252 254 256 259 257 253 254 256 253 244 234 229 227 226 226 226 226 226 226 227 229 229 229 227 226 226 224 223 224 224 226 233 242 247 247 245 243 243 244
77 76 70 68 70 70 67 62 55 49 49 53 57 61 64 64 63 63 60 59 61 62 60 61 60 57 58 59 60 58 54 51 52 55 56 53 51 51 49 43 36 33 13 317 282 266 262 256 254 260 265 264 264 266 268 265 257 247 239 235 233 230 229 228 229 229 230 230 229 229 230 230 229 229 229 227 228 235 244 245 241 239 239 239 240
89 87 83 79 77 77 77 77 73 63 57 58 61 62 61 58 55 55 52 50 52 52 51 51 50 48 47 46 47 48 42 36 35 36 36 35 33 31 28 22 17 15 15 9 360 346 320 285 264 259 263 267 270 271 271 272 270 264 256 248 243 237 234 233 231 230 230 230 230 231 232 232 232 231 230 230 233 238 241 240 235 232 233 232 232
95 90 84 76 69 62 60 68 73 69 66 70 71 69 65 59 54 53 51 49 49 47 44 43 42 41 41 40 37 36 32 26 24 24 22 19 16 13 10 9 7 3 1 360 354 348 345 337 312 285 274 275 278 279 278 275 274 271 265 259 252 244 238 236 235 233 231 229 229 229 230 230 230 230 232 237 242 244 242 236 230 227 226 222 214
100 90 81 74 69 61 56 59 63 64 65 69 71 69 66 63 61 61 61 59 56 50 43 40 39 38 40 40 36 32 28 24 22 21 20 16 12 7 0 356 355 354 352 350 346 339 333 334 336 326 311 301 296 293 289 283 278 274 269 263 256 247 240 236 236 235 233 232 231 227 225 229 232 235 241 246 245 245 242 236 232 226 219 212 205
91 91 84 80 77 68 59 55 56 57 58 61 67 69 68 67 67 66 64 61 57 52 46 44 44 43 42 41 39 36 32 28 24 20 18 15 12 7 1 356 352 348 344 341 339 338 332 329 332 332 329 325 319 311 303 297 291 284 276 269 260 251 245 241 237 235 232 231 231 226 224 230 236 239 244 244 243 244 243 239 236 226 212 202 199
72 81 82 78 71 61 55 53 53 55 55 57 64 67 66 66 65 61 56 54 54 54 53 51 49 47 43 38 35 32 29 26 23 19 16 13 9 5 2 359 355 351 347 343 338 336 333 331 331 331 331 332 331 325 315 307 303 297 288 279 268 260 255 250 244 239 235 233 232 230 227 230 236 240 242 242 241 242 241 239 235 224 209 203 203
66 72 77 75 66 55 48 44 45 51 55 56 57 54 51 51 52 50 51 55 57 55 51 45 40 35 32 27 23 19 17 16 13 12 12 11 9 7 4 2 359 357 359 357 350 344 339 335 332 330 329 329 330 330 326 316 308 300 293 286 277 270 265 258 250 244 242 241 242 242 240 240 243 246 246 243 240 236 234 232 227 217 208 209 202
63 63 67 75 73 62 50 43 45 51 51 45 43 45 47 50 51 50 50 49 46 41 36 32 28 25 21 18 15 12 11 10 8 8 7 5 5 5 6 6 5 4 6 5 1 354 348 342 337 331 328 326 324 324 324 323 318 307 297 290 284 278 272 263 254 250 249 250 249 249 249 248 247 246 245 242 238 232 227 223 216 209 208 203 189
63 58 56 68 82 73 57 50 46 41 37 34 42 52 56 55 51 45 38 34 31 27 24 22 21 18 15 12 11 10 10 10 8 6 5 4 3 1 1 2 3 4 5 4 0 355 350 347 342 336 331 326 323 321 319 319 320 316 306 296 289 285 278 267 259 256 255 254 252 250 249 246 243 242 240 237 233 227 222 220 216 207 196 185 176
60 53 43 50 85 88 64 49 42 43 51 55 56 60 61 57 48 35 27 25 21 17 18 18 16 13 11 9 8 8 9 9 7 5 5 5 3 1 1 0 359 359 359 358 356 354 351 348 345 342 337 331 326 322 319 318 318 316 311 304 296 293 288 274 263 258 257 254 252 250 245 240 236 233 229 223 221 220 218 215 209 196 183 176 173
54 41 29 38 81 93 63 57 62 67 72 71 66 66 66 59 45 31 23 18 13 12 13 13 11 10 10 9 8 8 7 3 1 360 357 355 354 355 355 354 354 355 355 352 350 349 348 347 343 340 338 334 329 325 320 319 319 318 317 314 308 304 300 288 271 261 256 254 253 249 242 233 225 219 212 206 200 194 191 192 190 186 183 182 178
52 33 26 31 58 75 69 70 71 69 68 66 62 63 64 53 38 28 19 12 9 9 8 5 3 3 5 6 6 4 1 358 356 356 354 352 351 349 346 346 348 348 347 345 344 343 343 343 340 337 334 331 329 327 322 317 316 318 320 320 317 313 309 300 285 269 255 250 251 246 231 217 211 206 200 194 186 176 174 178 181 183 185 184 182
53 34 22 17 42 78 81 77 71 62 56 55 52 50 45 34 23 14 6 2 2 1 0 360 359 356 355 357 357 356 354 354 353 353 352 351 349 347 344 343 343 341 339 337 336 335 336 336 333 330 328 326 324 326 325 317 310 310 312 314 316 318 315 306 295 277 254 243 243 235 214 200 196 194 190 187 182 177 175 176 177 179 181 181 181
44 27 11 2 57 95 90 79 70 59 48 43 39 36 29 18 9 3 359 359 359 358 357 360 1 357 351 347 349 350 351 349 347 345 344 343 340 338 336 334 334 334 333 330 328 327 328 328 324 320 319 317 317 322 325 316 302 296 300 303 309 316 314 307 295 273 249 235 226 213 200 192 188 187 189 189 185 179 175 173 174 177 177 175 175
25 18 20 48 104 105 94 85 76 57 41 35 30 25 18 6 1 1 1 0 357 353 349 350 355 357 353 348 347 347 345 343 341 339 338 336 334 333 330 327 326 328 328 326 323 321 320 319 315 311 308 307 310 317 323 316 299 288 290 299 305 308 307 303 290 263 241 225 208 195 190 190 189 188 191 189 179 174 171 169 168 168 168 167 166
40 41 54 78 96 93 85 83 71 44 28 20 13 10 3 354 358 4 2 356 352 348 341 337 341 348 347 343 340 338 336 338 339 339 336 333 331 332 331 327 325 324 324 322 319 316 316 315 313 311 308 305 305 310 315 312 301 288 283 287 297 301 298 292 274 246 225 209 196 187 185 188 188 187 185 178 172 170 168 165 160 158 159 159 155